Weather History for Flint, MI

Change the Weather History Date:

Friday, November 30, 2012

  Actual Average Record
Temperature  
Mean Temperature 1 °C 1 °C  
Max Temperature 4 °C 4 °C 17 °C (1998)
Min Temperature -2 °C -3 °C -16 °C (1958)
Degree Days  
Heating Degree Days 31 32  
Month to date heating degree days 785 785  
Since 1 July heating degree days 1391 1481  
Cooling Degree Days 0 0  
Month to date cooling degree days 0 0  
Year to date cooling degree days 864 531  
Moisture  
Dew Point 0 °C    
Average Humidity 84    
Maximum Humidity 92    
Minimum Humidity 75    
Precipitation  
Precipitation 1.27 mm 2.03 mm 2.08 mm (2006)
Month to date precipitation 0.65 2.67  
Year to date precipitation 28.27 29.45  
Snow  
Snow 0.00 cm 0.51 cm 7.62 cm (2008)
Month to date snowfall 1.9 2.5  
Since 1 July snowfall 2.2 2.9  
Since 1 September snowfall 2.2 2.9  
Snow Depth 0.00 cm    
Sea Level Pressure  
Sea Level Pressure 1024 hPa    
Wind  
Wind Speed 13 km/h (ENE)    
Max Wind Speed 24 km/h    
Max Gust Speed 29 km/h    
Visibility 7 kilometers    
Events Rain    
T = Trace of Precipitation, MM = Missing Value Source: NWS Daily Summary

Daily Weather History Graph

Daily Weather History Graph

Search for Another Location

Airport:

Trip Planner

Search our weather history database for the weather conditions in past years. The results will help you decide how hot, cold, wet, or windy it might be!

Date:

Astronomy

Nov. 30, 2012 Rise Set
Actual Time 7:45 AM EST 5:01 PM EST
Civil Twilight 7:14 AM EST 5:33 PM EST
Nautical Twilight 6:38 AM EST 6:08 PM EST
Astronomical Twilight 6:04 AM EST 6:42 PM EST
Moon 6:56 PM EST (11/30) 9:16 AM EST (11/30)
Length of Visible Light 10h 19m
Length of Day
9h 15m
Waning Gibbous, 96% of the Moon is Illuminated
Nov 30
Waning Gibbous
Dec 6
Last Quarter
Dec 13
New
Dec 20
First Quarter
Dec 28
Full

Hourly Weather History & Observations

Time (EST) Temp. Windchill Dew Point Humidity Pressure Visibility Wind Dir Wind Speed Gust Speed Precip Events Conditions
12:53 AM -1.1 °C -3.1 °C -4.4 °C 79% 1023.6 hPa 11.3 km East 5.6 km/h / 1.5 m/s - N/A   Clear
1:53 AM 0.6 °C -2.4 °C -2.8 °C 78% 1023.7 hPa 11.3 km NE 9.3 km/h / 2.6 m/s - N/A   Overcast
2:53 AM 1.1 °C -1.2 °C -2.2 °C 79% 1023.7 hPa 11.3 km East 7.4 km/h / 2.1 m/s - N/A   Overcast
3:53 AM 2.2 °C -0.5 °C -2.2 °C 73% 1023.4 hPa 11.3 km ENE 9.3 km/h / 2.6 m/s - N/A   Overcast
4:53 AM 2.2 °C -0.9 °C -1.1 °C 79% 1023.1 hPa 9.7 km ENE 11.1 km/h / 3.1 m/s - N/A   Haze
5:53 AM 2.8 °C -0.9 °C 0.0 °C 82% 1023.1 hPa 8.0 km East 14.8 km/h / 4.1 m/s - N/A   Haze
6:05 AM 3.0 °C -0.3 °C 1.0 °C 87% 1022.6 hPa 8.0 km East 13.0 km/h / 3.6 m/s - N/A   Overcast
6:16 AM 3.0 °C -0.7 °C 1.0 °C 87% 1022.6 hPa 8.0 km East 14.8 km/h / 4.1 m/s - N/A   Overcast
6:53 AM 2.8 °C -0.9 °C 0.6 °C 86% 1023.8 hPa 8.0 km East 14.8 km/h / 4.1 m/s - N/A   Overcast
7:53 AM 2.8 °C 0.2 °C 0.6 °C 86% 1024.1 hPa 6.4 km East 9.3 km/h / 2.6 m/s - N/A   Overcast
8:43 AM 3.0 °C -0.7 °C 1.0 °C 87% 1023.2 hPa 6.4 km East 14.8 km/h / 4.1 m/s - 0.0 mm   Overcast
8:53 AM 3.3 °C -0.3 °C 1.1 °C 86% 1024.3 hPa 4.8 km East 14.8 km/h / 4.1 m/s - 0.0 mm Rain Light Rain
9:23 AM 3.0 °C -1.0 °C 1.0 °C 87% 1023.2 hPa 4.0 km ENE 16.7 km/h / 4.6 m/s - 0.5 mm Rain Light Rain
9:53 AM 3.3 °C -0.3 °C 1.1 °C 86% 1024.0 hPa 4.0 km East 14.8 km/h / 4.1 m/s - 0.5 mm Rain Light Rain
10:41 AM 3.0 °C -1.2 °C 1.0 °C 87% 1023.2 hPa 2.8 km ENE 18.5 km/h / 5.1 m/s - 0.5 mm Rain Light Rain
10:53 AM 3.3 °C -0.6 °C 1.1 °C 86% 1024.1 hPa 2.8 km ENE 16.7 km/h / 4.6 m/s - 0.5 mm Rain Light Rain
11:12 AM 3.0 °C -0.7 °C 1.0 °C 87% 1022.9 hPa 3.2 km ENE 14.8 km/h / 4.1 m/s - 0.3 mm Rain Light Rain
11:45 AM 3.0 °C -1.0 °C 1.0 °C 87% 1022.6 hPa 3.2 km East 16.7 km/h / 4.6 m/s - 0.3 mm   Overcast
11:53 AM 3.3 °C -0.6 °C 1.1 °C 86% 1023.3 hPa 3.2 km East 16.7 km/h / 4.6 m/s - 0.3 mm   Overcast
12:53 PM 3.3 °C -0.9 °C 1.7 °C 89% 1022.8 hPa 3.2 km East 18.5 km/h / 5.1 m/s - N/A   Overcast
1:53 PM 3.3 °C -0.9 °C 1.7 °C 89% 1022.3 hPa 3.2 km ENE 18.5 km/h / 5.1 m/s - N/A   Overcast
2:53 PM 3.3 °C -0.9 °C 1.7 °C 89% 1022.4 hPa 4.0 km ENE 18.5 km/h / 5.1 m/s - N/A   Overcast
3:11 PM 3.0 °C -1.2 °C 2.0 °C 93% 1021.6 hPa 4.8 km ENE 18.5 km/h / 5.1 m/s - N/A   Overcast
3:53 PM 3.3 °C -0.9 °C 1.7 °C 89% 1023.3 hPa 4.8 km ENE 18.5 km/h / 5.1 m/s - N/A   Overcast
4:53 PM 3.3 °C -0.6 °C 1.1 °C 86% 1023.8 hPa 6.4 km ENE 16.7 km/h / 4.6 m/s - N/A   Overcast
5:53 PM 3.3 °C -0.9 °C 1.1 °C 86% 1024.3 hPa 8.0 km East 18.5 km/h / 5.1 m/s - N/A   Overcast
6:36 PM 2.0 °C -1.9 °C 1.0 °C 93% 1023.6 hPa 6.4 km East 14.8 km/h / 4.1 m/s - N/A   Overcast
6:45 PM 2.0 °C -1.9 °C 1.0 °C 93% 1023.9 hPa 6.4 km East 14.8 km/h / 4.1 m/s - N/A   Overcast
6:53 PM 2.2 °C -0.9 °C 0.0 °C 86% 1025.0 hPa 6.4 km ENE 11.1 km/h / 3.1 m/s - N/A   Overcast
7:53 PM 1.7 °C -2.6 °C -0.6 °C 85% 1024.8 hPa 6.4 km East 16.7 km/h / 4.6 m/s - N/A   Overcast
8:49 PM 2.0 °C -0.2 °C -1.0 °C 81% 1024.9 hPa 8.0 km East 7.4 km/h / 2.1 m/s - N/A   Overcast
8:53 PM 1.7 °C -0.5 °C -0.6 °C 85% 1025.7 hPa 8.0 km East 7.4 km/h / 2.1 m/s - N/A   Overcast
9:16 PM 1.0 °C -1.9 °C -1.0 °C 87% 1024.6 hPa 8.0 km East 9.3 km/h / 2.6 m/s - N/A   Overcast
9:53 PM 0.6 °C -2.8 °C -1.1 °C 89% 1025.3 hPa 6.4 km East 11.1 km/h / 3.1 m/s - N/A   Overcast
10:53 PM 0.0 °C -3.6 °C -1.7 °C 88% 1024.5 hPa 6.4 km East 11.1 km/h / 3.1 m/s - N/A   Clear
11:53 PM -0.6 °C -4.3 °C -2.2 °C 89% 1025.0 hPa 6.4 km ENE 11.1 km/h / 3.1 m/s - N/A   Clear